Location: Csohesd
(46.2500°N, 22.6167°E)
Time: 04:35:39
(UTC+00:00)

CSL-04 Debris - Pass Details

Date: 21 October 2021
Orbit: 827 x 847 km, 98.9° (Epoch: 30 November)

Event Time Altitude Azimuth Distance (km) Brightness Sun altitude
Exits shadow 17:49:50 35° 165° (SSE) 1,308 4.9 -24.4°
Maximum altitude 17:52:13 89° 256° (WSW) 837 4.1 -24.8°
Drops below altitude 10° 17:57:40 10° 345° (NNW) 2,452 6.9 -25.7°
Sets 18:00:02 0° 346° (NNW) 3,394 7.7 -26.1°
